Location: Unspecified
(40.7945°N, 0.0000°E)
Time: 06:15:45
(UTC+00:00)

Explorer 7 - Pass Details

Date: 26 January 2021
Orbit: 484 x 677 km, 50.3° (Epoch: 28 February)

Event Time Altitude Azimuth Distance (km) Brightness Sun altitude
Rises 02:55:07 0° 214° (SW) 2,531 - -48.9°
Reaches altitude 10° 02:57:22 10° 205° (SSW) 1,657 - -48.5°
Maximum altitude 03:00:49 36° 138° (SE) 787 - -47.9°
Drops below altitude 10° 03:04:21 10° 70° (ENE) 1,706 - -47.2°
Sets 03:06:41 0° 62° (ENE) 2,617 - -46.8°
